Dewpoint
73 73 73 73 72 72 71 71 72 72 72 72 73 73 73 73 73 72 71 70 70 71 71 71 72 71 70 70 70 70 69 68 69 69 71 71 71 70 70 71 71 70
72 73 73 73 73 73 72 71 71 72 72 72 72 73 73 73 72 72 71 70 70 71 71 71 71 72 71 70 70 69 68 68 68 70 69 71 71 71 70 70 69 68
73 72 72 72 72 72 72 72 72 72 72 72 72 72 72 73 72 72 71 71 70 70 71 71 70 71 71 71 71 70 69 68 68 68 70 69 69 69 69 68 66 63
72 72 72 71 72 72 73 73 72 72 73 72 72 72 72 72 72 71 71 73 71 70 70 70 70 69 70 70 71 70 70 70 69 70 70 71 71 69 67 66 66 65
72 72 72 71 71 72 72 73 73 73 72 72 72 72 72 72 72 71 71 71 71 71 71 70 70 69 69 70 70 70 70 70 70 71 70 69 69 70 69 69 67 65
72 72 72 72 72 72 71 71 72 73 73 72 72 72 71 71 71 71 71 70 70 71 70 70 70 69 69 69 70 70 70 70 70 71 70 69 69 69 69 68 67 65
73 73 73 73 73 72 72 71 71 73 72 71 72 71 71 71 71 71 71 71 71 71 70 70 70 70 69 69 70 70 70 71 70 71 70 70 70 69 69 68 67 66
72 73 72 73 72 73 72 72 72 73 73 73 71 72 73 71 71 71 71 71 71 71 71 70 70 70 69 69 69 70 70 70 70 70 70 70 70 70 69 68 67 67
72 71 72 72 72 72 71 71 72 74 74 72 73 73 72 71 70 70 71 71 70 70 71 70 70 70 69 69 69 69 69 69 69 69 69 69 70 70 69 69 68 67
71 72 72 72 72 72 72 73 73 74 73 74 73 73 72 72 72 71 70 71 71 70 70 70 69 70 70 69 69 69 69 70 70 70 69 69 69 69 69 68 67 67
72 72 72 72 72 72 72 72 73 73 74 73 73 73 73 73 73 73 72 72 71 71 71 70 71 71 70 70 70 69 69 70 70 70 69 69 68 69 71 69 68 67
70 71 71 70 71 72 72 73 73 73 72 73 73 72 72 73 72 73 73 72 71 72 71 70 71 71 70 69 69 70 69 70 70 70 69 69 69 68 68 69 69 68
69 70 70 70 71 70 71 72 71 71 72 71 72 72 71 70 72 72 71 72 72 71 71 71 71 71 70 70 69 69 69 69 69 69 69 69 69 69 68 68 68 68
70 71 70 70 70 70 71 72 72 72 72 72 72 72 72 71 73 73 72 72 71 71 72 72 71 70 70 70 70 71 71 69 68 68 68 68 68 68 68 68 67 67
71 71 71 72 71 70 70 69 70 72 71 72 73 73 72 72 73 73 73 73 73 72 72 72 71 70 70 70 71 71 71 70 70 69 68 68 68 68 68 68 68 68
69 69 69 69 69 68 68 69 69 70 70 71 72 72 72 71 71 72 72 73 73 72 72 72 71 71 72 73 73 72 71 71 71 71 71 69 69 68 67 68 68 68
68 68 68 68 68 67 67 68 68 69 69 68 69 69 71 72 73 72 71 72 72 72 72 73 73 73 74 71 71 73 72 71 70 71 71 71 71 70 69 70 71 71
68 67 67 66 66 66 66 67 67 67 68 68 68 68 69 70 70 71 72 72 72 72 72 72 73 74 71 70 69 69 72 72 71 70 70 70 71 71 70 70 70 70
67 66 66 65 65 66 66 66 66 66 67 67 68 69 69 68 68 68 69 70 72 71 71 72 72 73 69 69 68 68 69 72 71 70 71 71 71 70 69 69 70 71
66 65 65 64 65 65 65 65 65 65 66 67 68 67 67 67 68 67 68 68 70 71 72 72 71 68 66 67 66 67 67 70 70 71 71 71 71 70 69 69 71 72
65 64 64 64 64 65 65 65 65 65 66 67 66 66 66 66 66 66 67 69 68 69 70 68 66 63 63 64 64 64 66 70 70 72 71 72 71 70 70 71 72 73
64 64 63 63 63 63 63 64 64 64 65 66 66 65 65 66 66 66 67 67 69 69 69 66 65 61 61 62 62 62 65 71 71 71 70 71 71 70 71 71 71 71
64 63 63 62 63 63 62 63 63 64 64 66 64 64 64 64 65 66 67 68 69 67 66 65 65 61 59 60 60 61 67 69 70 71 70 70 71 72 72 72 72 71
63 63 63 63 62 62 62 63 63 63 64 66 63 63 63 64 65 65 66 67 68 67 66 64 63 61 58 57 57 59 66 69 70 69 69 69 69 70 70 70 71 72
63 63 63 62 62 62 63 63 63 63 64 63 63 63 63 64 66 64 65 66 67 67 68 65 64 63 58 56 56 58 63 66 68 70 69 69 69 69 69 69 69 72
63 64 63 62 61 62 62 62 63 63 62 62 62 62 62 62 64 63 63 64 65 63 64 64 65 64 62 56 56 57 59 64 67 68 69 69 69 69 68 68 68 66